Location: Le Rocchette
(44.3500°N, 7.8333°E)
Time: 21:37:52
(UTC+00:00)

Cosmos 1937 Rocket - Pass Details

Date: 17 November 2019
Orbit: 747 x 780 km, 74.0° (Epoch: 07 December)

Event Time Altitude Azimuth Distance (km) Brightness Sun altitude
Exits shadow 05:27:11 - 236° (SW) 3,191 6.3 -10.7°
Rises 05:27:11 0° 236° (SW) 3,189 6.3 -10.7°
Reaches altitude 10° 05:29:58 10° 250° (WSW) 2,266 5.5 -10.3°
Maximum altitude 05:34:05 24° 303° (WNW) 1,524 4.5 -9.6°
Drops below altitude 10° 05:38:13 10° 357° (N) 2,274 5.7 -8.9°
Sets 05:41:02 0° 12° (NNE) 3,203 6.6 -8.4°
